GW4487 Weather Reports


Display with metric or nautical units.
time (UTC)temp
F
wind
direction
speed
MPH
gust
MPH
rain 1hr
in
rain 24hr
in
rain mn
in
humidity
%
barometer
mb
20260507062920 61 143 0.0 0.0 0.00 0.00 0.00 76 1015.4
20260507062417 62 142 0.0 0.0 0.00 0.00 0.00 75 1015.4
20260507061914 62 143 0.0 0.0 0.00 0.00 0.00 75 1015.1
20260507061413 62 143 0.0 0.0 0.00 0.00 0.00 75 1015.1
20260507060911 62 142 0.0 0.0 0.00 0.00 0.00 75 1015.4
20260507060407 62 143 0.0 0.0 0.00 0.00 0.00 75 1015.1
20260507055904 62 146 1.0 1.0 0.00 0.00 0.00 74 1015.4
20260507055358 62 149 0.0 0.0 0.00 0.00 0.00 74 1015.4
20260507054850 62 149 0.0 1.0 0.00 0.00 0.00 74 1015.1
20260507054346 63 200 0.0 0.0 0.00 0.00 0.00 73 1015.1
20260507053844 63 171 0.0 0.0 0.00 0.00 0.00 71 1015.4
20260507053341 63 171 0.0 1.0 0.00 0.00 0.00 70 1015.4
20260507052840 63 171 0.0 0.0 0.00 0.00 0.00 70 1015.1
20260507052336 63 155 0.0 1.0 0.00 0.00 0.00 73 1015.1
20260507051834 63 140 0.0 1.0 0.00 0.00 0.00 73 1015.1
20260507051332 63 143 2.0 2.0 0.00 0.00 0.00 73 1015.1
20260507050828 63 166 1.0 2.0 0.00 0.00 0.00 73 1015.1
20260507050324 63 141 0.0 1.0 0.00 0.00 0.00 72 1015.1
20260507045822 63 138 2.0 2.0 0.00 0.00 0.00 72 1015.1
20260507045318 64 137 1.0 2.0 0.00 0.00 0.00 72 1015.1
20260507044815 64 142 1.0 2.0 0.00 0.00 0.00 72 1015.1
20260507044312 64 139 1.0 2.0 0.00 0.00 0.00 71 1015.1
20260507043808 64 168 2.0 3.0 0.00 0.00 0.00 71 1015.1
20260507043305 64 175 2.0 3.0 0.00 0.00 0.00 71 1015.1
20260507042801 64 167 1.0 2.0 0.00 0.00 0.00 71 1015.1
20260507042256 64 173 1.0 2.0 0.00 0.00 0.00 71 1015.1
20260507041754 64 162 1.0 2.0 0.00 0.00 0.00 71 1015.1
20260507041250 64 182 1.0 2.0 0.00 0.00 0.00 71 1014.7
20260507040747 64 176 2.0 3.0 0.00 0.00 0.00 71 1015.1
20260507040243 64 165 0.0 1.0 0.00 0.00 0.00 71 1015.1
20260507035739 64 177 1.0 2.0 0.00 0.00 0.00 71 1015.1
20260507035235 64 170 2.0 3.0 0.00 0.00 0.00 71 1014.7
20260507034733 64 190 2.0 5.0 0.00 0.00 0.00 70 1014.7
20260507034229 64 190 2.0 3.0 0.00 0.00 0.00 70 1014.7
20260507033728 64 182 3.0 5.0 0.00 0.00 0.00 70 1014.4
20260507033225 65 170 2.0 3.0 0.00 0.00 0.00 69 1014.7
20260507032722 65 160 2.0 2.0 0.00 0.00 0.00 69 1014.4
20260507032218 65 194 0.0 3.0 0.00 0.00 0.00 68 1014.7
20260507031715 65 211 3.0 5.0 0.00 0.00 0.00 68 1014.4
20260507031212 65 154 3.0 5.0 0.00 0.00 0.00 67 1014.4
20260507030708 65 171 4.0 5.0 0.00 0.00 0.00 67 1014.4
20260507030206 66 166 3.0 5.0 0.00 0.00 0.00 66 1014.0
20260507025703 66 215 1.0 2.0 0.00 0.00 0.00 67 1014.4
20260507025200 66 205 2.0 3.0 0.00 0.00 0.00 67 1014.4
20260507024658 66 176 4.0 5.0 0.00 0.00 0.00 67 1014.0
20260507024155 66 170 3.0 3.0 0.00 0.00 0.00 66 1014.4
20260507023650 66 193 3.0 6.0 0.00 0.00 0.00 66 1014.0
20260507023148 66 172 3.0 5.0 0.00 0.00 0.00 65 1014.0
20260507022645 67 202 2.0 6.0 0.00 0.00 0.00 65 1014.0
20260507022141 67 226 2.0 5.0 0.00 0.00 0.00 64 1013.7
20260507021637 67 214 1.0 5.0 0.00 0.00 0.00 63 1013.7
20260507021132 68 228 3.0 6.0 0.00 0.00 0.00 62 1013.7
20260507020631 68 250 5.0 6.0 0.00 0.00 0.00 60 1013.7
20260507020127 68 211 1.0 5.0 0.00 0.00 0.00 58 1013.7
20260507015626 68 221 4.0 7.0 0.00 0.00 0.00 59 1013.7
20260507015122 69 215 5.0 6.0 0.00 0.00 0.00 58 1013.7
20260507014619 69 219 2.0 5.0 0.00 0.00 0.00 57 1013.7
20260507014115 69 183 2.0 6.0 0.00 0.00 0.00 56 1013.7
20260507013612 69 220 1.0 5.0 0.00 0.00 0.00 55 1013.7
20260507013109 70 254 6.0 7.0 0.00 0.00 0.00 56 1013.7
20260507012606 70 227 1.0 5.0 0.00 0.00 0.00 57 1013.7
20260507012101 69 204 1.0 5.0 0.00 0.00 0.00 57 1013.7
20260507011600 70 228 7.0 8.0 0.00 0.00 0.00 59 1013.4
20260507011055 70 206 2.0 7.0 0.00 0.00 0.00 56 1013.4
20260507010550 70 237 3.0 7.0 0.00 0.00 0.00 56 1013.7
20260507010047 70 244 4.0 8.0 0.00 0.00 0.00 56 1013.4
20260507005544 71 216 6.0 7.0 0.00 0.00 0.00 55 1013.7
20260507005040 71 199 5.0 6.0 0.00 0.00 0.00 56 1013.7
20260507004538 72 202 3.0 7.0 0.00 0.00 0.00 55 1013.4
20260507004035 71 217 3.0 8.0 0.00 0.00 0.00 56 1013.0
20260507003531 71 217 4.0 6.0 0.00 0.00 0.00 54 1013.4
20260507003026 72 254 7.0 8.0 0.00 0.00 0.00 54 1013.4
20260507002523 72 210 3.0 7.0 0.00 0.00 0.00 54 1013.4
20260507002019 72 206 2.0 7.0 0.00 0.00 0.00 53 1013.0
20260507001515 72 187 4.0 7.0 0.00 0.00 0.00 54 1013.4
20260507001013 72 221 2.0 6.0 0.00 0.00 0.00 53 1013.4
20260507000509 72 204 5.0 7.0 0.00 0.00 0.00 52 1013.4
20260507000005 73 224 4.0 7.0 0.00 0.00 0.00 52 1013.4
20260506235502 72 224 5.0 9.0 0.00 0.00 0.00 53 1013.0
20260506234958 73 218 2.0 7.0 0.00 0.00 0.00 52 1013.4
20260506234455 73 196 5.0 9.0 0.00 0.00 0.00 52 1013.0
20260506233952 72 212 5.0 8.0 0.00 0.00 0.00 52 1013.4
20260506233449 72 214 5.0 8.0 0.00 0.00 0.00 52 1013.4
20260506232945 72 250 4.0 9.0 0.00 0.00 0.00 52 1013.4
20260506232442 72 242 5.0 7.0 0.00 0.00 0.00 51 1013.4
20260506231937 72 264 5.0 16.0 0.00 0.00 0.00 50 1013.4
20260506231436 72 245 8.0 10.0 0.00 0.00 0.00 50 1013.4
20260506230932 73 215 6.0 11.0 0.00 0.00 0.00 49 1013.4
20260506230428 73 203 4.0 8.0 0.00 0.00 0.00 46 1013.4
20260506225925 73 232 4.0 8.0 0.00 0.00 0.00 47 1013.4
20260506225423 73 177 4.0 6.0 0.00 0.00 0.00 45 1013.4
20260506224919 73 194 4.0 11.0 0.00 0.00 0.00 45 1013.7
20260506224417 73 213 6.0 10.0 0.00 0.00 0.00 45 1013.7
20260506223913 74 253 5.0 9.0 0.00 0.00 0.00 45 1013.7
20260506223408 74 219 7.0 9.0 0.00 0.00 0.00 44 1013.7
20260506222900 73 265 5.0 8.0 0.00 0.00 0.00 45 1013.7
20260506222356 74 220 2.0 8.0 0.00 0.00 0.00 46 1013.7
20260506221854 73 186 3.0 8.0 0.00 0.00 0.00 45 1014.0
20260506221351 73 248 2.0 7.0 0.00 0.00 0.00 46 1014.0
20260506220848 73 244 3.0 8.0 0.00 0.00 0.00 46 1014.0
20260506220343 73 228 3.0 9.0 0.00 0.00 0.00 47 1014.0
20260506215835 73 239 4.0 7.0 0.00 0.00 0.00 48 1014.0
20260506215330 73 278 5.0 7.0 0.00 0.00 0.00 48 1014.0
20260506214821 74 205 4.0 6.0 0.00 0.00 0.00 47 1014.4
20260506214317 72 246 4.0 7.0 0.00 0.00 0.00 49 1014.4
20260506213816 73 291 9.0 17.0 0.00 0.00 0.00 48 1014.4
20260506213313 73 228 3.0 8.0 0.00 0.00 0.00 49 1014.4
20260506212810 73 223 7.0 10.0 0.00 0.00 0.00 48 1014.4
20260506212307 72 182 3.0 7.0 0.00 0.00 0.00 51 1014.4
20260506211801 72 246 6.0 10.0 0.00 0.00 0.00 52 1014.4
20260506211257 72 248 1.0 6.0 0.00 0.00 0.00 51 1014.7
20260506210755 72 246 3.0 8.0 0.00 0.00 0.00 52 1014.4
20260506210251 73 210 5.0 7.0 0.00 0.00 0.00 51 1014.7
20260506205748 72 284 8.0 9.0 0.00 0.00 0.00 51 1014.7
20260506205244 72 253 5.0 9.0 0.00 0.00 0.00 53 1014.7
20260506204741 72 269 7.0 10.0 0.00 0.00 0.00 53 1014.7
20260506204239 73 279 7.0 9.0 0.00 0.00 0.00 52 1014.7
20260506203736 72 212 3.0 8.0 0.00 0.00 0.00 53 1014.7
20260506203233 73 239 4.0 7.0 0.00 0.00 0.00 51 1014.7
20260506202731 71 204 6.0 9.0 0.00 0.00 0.00 54 1014.7
20260506202227 71 171 5.0 8.0 0.00 0.00 0.00 55 1015.1
20260506201724 71 214 3.0 8.0 0.00 0.00 0.00 54 1015.1
20260506201220 72 205 6.0 10.0 0.00 0.00 0.00 54 1015.1
20260506200718 72 173 4.0 6.0 0.00 0.00 0.00 53 1015.1
20260506200214 72 111 2.0 8.0 0.00 0.00 0.00 53 1015.1
20260506195710 73 193 2.0 8.0 0.00 0.00 0.00 52 1015.1
20260506195207 70 195 2.0 8.0 0.00 0.00 0.00 55 1015.4
20260506194659 71 227 4.0 9.0 0.00 0.00 0.00 56 1015.4
20260506194155 71 221 5.0 8.0 0.00 0.00 0.00 56 1015.4
20260506193653 73 267 7.0 8.0 0.00 0.00 0.00 52 1015.4
20260506193150 71 237 1.0 7.0 0.00 0.00 0.00 55 1015.7
20260506192646 71 166 6.0 8.0 0.00 0.00 0.00 55 1015.4
20260506192142 71 215 0.0 5.0 0.00 0.00 0.00 55 1015.7
20260506191640 70 234 7.0 9.0 0.00 0.00 0.00 57 1015.7
20260506191135 70 183 2.0 6.0 0.00 0.00 0.00 58 1015.7
20260506190633 70 213 3.0 6.0 0.00 0.00 0.00 54 1015.7
20260506190130 69 256 4.0 9.0 0.00 0.00 0.00 57 1016.1
20260506185627 69 207 5.0 10.0 0.00 0.00 0.00 57 1015.7
20260506185123 70 244 3.0 11.0 0.00 0.00 0.00 57 1015.7
20260506184621 71 83 1.0 5.0 0.00 0.00 0.00 55 1015.7
20260506184118 70 169 0.0 3.0 0.00 0.00 0.00 54 1016.1
20260506183614 69 259 5.0 7.0 0.00 0.00 0.00 55 1016.1
20260506183110 70 254 5.0 8.0 0.00 0.00 0.00 55 1016.1
20260506182608 69 251 1.0 3.0 0.00 0.00 0.00 53 1016.1
20260506182105 70 247 4.0 5.0 0.00 0.00 0.00 53 1016.1
20260506181603 70 195 3.0 6.0 0.00 0.00 0.00 54 1016.1
20260506181059 69 121 4.0 6.0 0.00 0.00 0.00 53 1016.1
20260506180556 69 162 2.0 3.0 0.00 0.00 0.00 54 1016.4
20260506180053 69 223 2.0 8.0 0.00 0.00 0.00 56 1016.1
20260506175549 69 212 3.0 6.0 0.00 0.00 0.00 55 1016.1
20260506175045 69 193 0.0 2.0 0.00 0.00 0.00 52 1016.1
20260506174544 69 89 1.0 3.0 0.00 0.00 0.00 53 1016.1
20260506174040 68 229 0.0 2.0 0.00 0.00 0.00 54 1016.1
20260506173538 68 169 2.0 5.0 0.00 0.00 0.00 56 1016.1
20260506173034 68 199 3.0 6.0 0.00 0.00 0.00 55 1016.1
20260506172532 68 216 3.0 6.0 0.00 0.00 0.00 56 1016.1
20260506172028 67 176 3.0 6.0 0.00 0.00 0.00 56 1016.4
20260506171525 66 243 0.0 3.0 0.00 0.00 0.00 58 1016.4
20260506171023 66 318 5.0 6.0 0.00 0.00 0.00 58 1016.4
20260506170520 67 211 4.0 7.0 0.00 0.00 0.00 58 1016.4
20260506170017 66 187 0.0 2.0 0.00 0.00 0.00 58 1016.4
20260506165515 66 151 1.0 6.0 0.00 0.00 0.00 58 1016.4
20260506165006 66 157 3.0 5.0 0.00 0.00 0.00 58 1016.4
20260506164503 65 163 3.0 9.0 0.00 0.00 0.00 62 1016.4
20260506164001 66 150 5.0 7.0 0.00 0.00 0.00 61 1016.1
20260506163456 66 150 1.0 3.0 0.00 0.00 0.00 61 1016.4
20260506162950 66 142 0.0 3.0 0.00 0.00 0.00 60 1016.4
20260506162448 64 150 2.0 3.0 0.00 0.00 0.00 61 1016.4
20260506161940 65 198 1.0 3.0 0.00 0.00 0.00 63 1016.8
20260506161438 64 183 2.0 3.0 0.00 0.00 0.00 64 1016.4
20260506160935 65 157 4.0 5.0 0.00 0.00 0.00 62 1016.4
20260506160432 64 112 0.0 5.0 0.00 0.00 0.00 64 1016.4
20260506155929 64 186 3.0 5.0 0.00 0.00 0.00 64 1016.4
20260506155426 64 173 4.0 5.0 0.00 0.00 0.00 63 1016.8
20260506153548 63 147 0.0 1.0 0.00 0.00 0.00 66 1016.8
20260506153045 63 129 1.0 1.0 0.00 0.00 0.00 65 1016.4
20260506152542 62 127 1.0 1.0 0.00 0.00 0.00 67 1016.4
20260506152040 62 145 3.0 3.0 0.00 0.00 0.00 67 1016.4
20260506151538 62 126 3.0 3.0 0.00 0.00 0.00 68 1016.4
20260506151035 62 159 0.0 1.0 0.00 0.00 0.00 67 1016.4
20260506150531 62 126 1.0 1.0 0.00 0.00 0.00 67 1016.4
20260506150023 62 111 0.0 1.0 0.00 0.00 0.00 66 1016.4
20260506145519 61 117 1.0 2.0 0.00 0.00 0.00 67 1016.4
20260506145017 60 146 1.0 2.0 0.00 0.00 0.00 68 1016.1
20260506144513 60 160 1.0 2.0 0.00 0.00 0.00 68 1016.4
20260506144011 59 135 0.0 1.0 0.00 0.00 0.00 67 1016.4
20260506143509 58 152 0.0 1.0 0.00 0.00 0.00 69 1016.4
20260506143007 58 148 1.0 2.0 0.00 0.00 0.00 70 1016.4
20260506142504 58 151 1.0 1.0 0.00 0.00 0.00 70 1016.4
20260506142002 59 132 0.0 1.0 0.00 0.00 0.00 67 1016.4
20260506141500 58 134 0.0 0.0 0.00 0.00 0.00 68 1016.4
20260506140958 58 139 0.0 0.0 0.00 0.00 0.00 70 1016.4
20260506140455 57 155 0.0 0.0 0.00 0.00 0.00 72 1016.4
20260506135951 57 155 0.0 0.0 0.00 0.00 0.00 71 1016.1
20260506135449 56 155 0.0 0.0 0.00 0.00 0.00 74 1016.4
20260506134945 55 155 0.0 0.0 0.00 0.00 0.00 75 1016.4
20260506134441 55 155 0.0 0.0 0.00 0.00 0.00 74 1016.4
20260506133938 54 42 0.0 0.0 0.00 0.00 0.00 76 1016.4
20260506133435 53 42 0.0 0.0 0.00 0.00 0.00 80 1016.4
20260506132932 52 42 0.0 0.0 0.00 0.00 0.00 81 1016.1
20260506132429 52 42 0.0 0.0 0.00 0.00 0.00 81 1016.1
20260506131926 52 42 0.0 0.0 0.00 0.00 0.00 82 1015.7
20260506131423 52 42 0.0 0.0 0.00 0.00 0.00 83 1015.7
20260506130920 52 42 0.0 0.0 0.00 0.00 0.00 83 1016.1
20260506130416 52 43 0.0 0.0 0.00 0.00 0.00 84 1015.4
20260506125914 52 42 0.0 0.0 0.00 0.00 0.00 83 1015.7
20260506125412 52 43 0.0 0.0 0.00 0.00 0.00 84 1015.7
20260506124910 52 43 0.0 0.0 0.00 0.00 0.00 84 1015.7
20260506124407 52 43 0.0 0.0 0.00 0.00 0.00 85 1015.7
20260506123905 52 43 0.0 0.0 0.00 0.00 0.00 85 1015.7
20260506123403 52 43 0.0 0.0 0.00 0.00 0.00 86 1015.4
20260506122900 52 43 0.0 0.0 0.00 0.00 0.00 85 1015.7
20260506122356 52 43 0.0 0.0 0.00 0.00 0.00 84 1015.4
20260506121855 52 43 0.0 0.0 0.00 0.00 0.00 85 1015.4
20260506121352 52 43 0.0 0.0 0.00 0.00 0.00 85 1015.1
20260506120848 52 43 0.0 0.0 0.00 0.00 0.00 85 1015.1
20260506120346 53 43 0.0 0.0 0.00 0.00 0.00 85 1015.4
20260506115843 53 43 0.0 0.0 0.00 0.00 0.00 85 1015.4
20260506115342 53 43 0.0 0.0 0.00 0.00 0.00 85 1015.4
20260506114839 53 43 0.0 0.0 0.00 0.00 0.00 85 1015.4
20260506114337 52 43 0.0 0.0 0.00 0.00 0.00 86 1015.1
20260506113835 53 43 0.0 0.0 0.00 0.00 0.00 85 1015.1
20260506113332 52 43 0.0 0.0 0.00 0.00 0.00 86 1015.4
20260506112829 53 43 0.0 0.0 0.00 0.00 0.00 84 1015.1
20260506112326 53 43 0.0 0.0 0.00 0.00 0.00 84 1015.1
20260506111824 53 42 0.0 0.0 0.00 0.00 0.00 84 1015.1
20260506111322 53 42 0.0 0.0 0.00 0.00 0.00 84 1015.4
20260506110819 53 42 0.0 0.0 0.00 0.00 0.00 84 1015.1
20260506110316 53 42 0.0 0.0 0.00 0.00 0.00 84 1015.1
20260506105812 53 42 0.0 0.0 0.00 0.00 0.00 84 1015.1
20260506105309 54 42 0.0 0.0 0.00 0.00 0.00 84 1015.4
20260506104807 54 42 0.0 0.0 0.00 0.00 0.00 84 1015.1
20260506104304 54 42 0.0 0.0 0.00 0.00 0.00 83 1015.1
20260506103802 54 42 0.0 0.0 0.00 0.00 0.00 84 1015.4
20260506103259 54 42 0.0 0.0 0.00 0.00 0.00 84 1015.1
20260506102756 54 42 0.0 0.0 0.00 0.00 0.00 84 1015.4
20260506102254 55 41 0.0 0.0 0.00 0.00 0.00 84 1015.4
20260506101751 55 41 0.0 0.0 0.00 0.00 0.00 84 1015.4
20260506101247 55 42 0.0 1.0 0.00 0.00 0.00 85 1015.1
20260506100745 55 63 2.0 2.0 0.00 0.00 0.00 86 1015.1
20260506100243 55 77 0.0 0.0 0.00 0.00 0.00 86 1015.1
20260506095742 55 92 1.0 1.0 0.00 0.00 0.00 87 1015.1
20260506095238 55 157 0.0 0.0 0.00 0.00 0.00 87 1015.4
20260506094735 55 158 0.0 0.0 0.00 0.00 0.00 87 1015.4
20260506094233 55 158 0.0 0.0 0.00 0.00 0.00 87 1015.4
20260506093732 55 158 0.0 0.0 0.00 0.00 0.00 87 1015.4
20260506093228 55 158 0.0 0.0 0.00 0.00 0.00 87 1015.4
20260506092726 55 158 0.0 0.0 0.00 0.00 0.00 88 1015.4
20260506092224 55 158 0.0 0.0 0.00 0.00 0.00 87 1015.1
20260506091721 55 158 0.0 0.0 0.00 0.00 0.00 87 1015.4
20260506091218 55 158 0.0 0.0 0.00 0.00 0.00 87 1015.1
20260506090716 55 158 0.0 0.0 0.00 0.00 0.00 88 1015.4
20260506090212 55 158 0.0 0.0 0.00 0.00 0.00 88 1015.4
20260506085710 55 158 0.0 0.0 0.00 0.00 0.00 85 1015.4
20260506085205 56 158 0.0 0.0 0.00 0.00 0.00 85 1015.4
20260506084702 56 158 0.0 0.0 0.00 0.00 0.00 85 1015.7
20260506084159 56 158 0.0 0.0 0.00 0.00 0.00 85 1015.4
20260506083655 56 158 0.0 0.0 0.00 0.00 0.00 84 1015.4
20260506083154 56 158 0.0 0.0 0.00 0.00 0.00 84 1015.7
20260506082650 56 158 0.0 0.0 0.00 0.00 0.00 84 1015.7
20260506082145 56 158 0.0 0.0 0.00 0.00 0.00 83 1015.7
20260506081643 57 158 0.0 1.0 0.00 0.00 0.00 83 1015.4
20260506081141 57 146 0.0 1.0 0.00 0.00 0.00 82 1015.7
20260506080638 57 145 0.0 1.0 0.00 0.00 0.00 82 1015.7
20260506080135 57 145 0.0 1.0 0.00 0.00 0.00 82 1015.7
20260506073119 57 135 2.0 3.0 0.00 0.00 0.00 81 1015.4
20260506072615 57 142 1.0 3.0 0.00 0.00 0.00 81 1015.7
20260506072113 57 123 2.0 3.0 0.00 0.00 0.00 81 1015.7
20260506071611 57 112 3.0 5.0 0.00 0.00 0.00 80 1015.7
20260506071108 57 117 3.0 3.0 0.00 0.00 0.00 80 1015.7
20260506070605 57 129 3.0 3.0 0.00 0.00 0.00 80 1015.7